Regional Weather Roundup
Issued by NWS

Home | Current Version | Previous Version | Graphics & Text | Print | Product List | Glossary On
Versions: 1 2 3 4 5 6 7 8 9 10 11 12 13 14 15 16 17 18 19 20 21 22 23 24 25 26 27 28 29 30 31 32 33 34 35 36 37 38 39 40 41 42 43 44 45 46 47 48 49 50
000
ASUS43 KFSD 230202
RWRSD

WEATHER ROUNDUP FOR SOUTH DAKOTA
NATIONAL WEATHER SERVICE SIOUX FALLS SD
900 PM CDT THU JUN 22 2017

NOTE: "FAIR" INDICATES FEW OR NO CLOUDS BELOW 12,000 FEET WITH NO
SIGNIFICANT WEATHER AND/OR OBSTRUCTIONS TO VISIBILITY.


SDZ001>005-009-010-012>017-230300-
NORTHWEST AND NORTH CENTRAL SOUTH DAKOTA

CITY           SKY/WX    TMP DP  RH WIND       PRES   REMARKS
BUFFALO          N/A     67  31  26 NW30      29.91R
FAITH            N/A     67  35  30 NW16      29.94R
MOBRIDGE       CLOUDY    74  33  22 NW16      29.83R
$$

SDZ012>016-024>037-041>051-057-063-072>074-230300-
SOUTHWEST AND SOUTH CENTRAL SOUTH DAKOTA

CITY           SKY/WX    TMP DP  RH WIND       PRES   REMARKS
RAPID CTY ARPT CLEAR     69  34  27 N24G31    29.96R
PIERRE         CLEAR     71  48  43 NW9       29.85R
CUSTER         PTCLDY    62  36  37 E10       30.07R
ELLSWORTH AFB  CLEAR     71  35  26 N25G35    29.98R
PHILIP         CLEAR     74  36  25 N12       29.90R
PINE RIDGE     CLEAR     70  45  40 NE5       29.96R
SPEARFISH      FAIR      63  37  39 NW7       30.05R
WINNER         FAIR      73  46  38 N7        29.89R
$$

SDZ004>011-016>023-039-040-230300-
NORTHEAST SOUTH DAKOTA

CITY           SKY/WX    TMP DP  RH WIND       PRES   REMARKS
ABERDEEN       CLEAR     69  42  37 NW7       29.80R
WATERTOWN      PTCLDY    66  58  75 SW6       29.81R
BROOKINGS      CLEAR     66  56  70 NW5       29.83R
SISSETON         N/A     70  46  42 NW6       29.76S
$$

SDZ017-020-022-023-036>040-048>070-230300-
SOUTHEAST SOUTH DAKOTA

CITY           SKY/WX    TMP DP  RH WIND       PRES   REMARKS
SIOUX FALLS    MOCLDY    66  53  63 N7        29.81R
HURON          CLEAR     72  54  53 SW3       29.82R
CHAMBERLAIN    CLEAR     74  53  47 NW3       29.86R
MITCHELL       CLEAR     71  48  43 NW3       29.84R
YANKTON        MOCLDY    72  62  71 N9        29.81R
$$

ABBREVIATIONS USED IN REMARKS
   TC - TEMPERATURE IN CELSIUS
  WCI - WIND CHILL INDEX
   HX - HEAT INDEX
  VSB - VISIBILITY





USA.gov is the U.S. government's official web portal to all federal, state and local government web resources and services.